User: anonymous   Login
Location: *
(52.2090°N, 4.1550°W)
Time: 08:35:43
(UTC+00:00)
Language:

USA 215 - Orbit

View from above orbital plane
View from above orbital plane
View from above satellite
View from above satellite

Ground track
Ground track

The orbit data is extracted from the following two-line orbital elements,

1 37162U 10046A   19257.43058228 0.00000060  00000-0  10746-3 0    06
2 37162 123.0063 197.8100 0003001 142.4753 217.5246 13.41420071    02
Epoch (UTC): 14 September 2019 10:20:02
Eccentricity: 0.0003001
inclination: 123.0063°
perigee height: 1102 km
apogee height: 1106 km
right ascension of ascending node: 197.8100°
argument of perigee: 142.4753°
revolutions per day: 13.41420071
mean anomaly at epoch: 217.5246°
orbit number at epoch: 0

The dashed part of the orbit path shows where the satellite is in the earth's shadow,  

DLR